Вернуться в каталог

STARLINK-30095

АктивенСвязьVLEO
NORAD 56289·PAYLOAD·🇺🇸 United States

Запущен Apr 19, 2023 с Cape Canaveral Space Force Station

Loading…

Ближайшие Пролёты (ближайшие 24 часа)

TLE

СвежийSource: CelesTrak SupGP

Эпоха: Sep 14, 2026, 21:07 UTC

1 56289C 23056D   26257.88034722  .00012610  00000+0  45670-3 0  2573
2 56289  43.0013 194.5885 0001296 260.8438   7.1466 15.27575508    12

Отслеживайте STARLINK-30095 в реальном времени с AllMySat

Download on the App Store